Погода в Загарье

Россия / Кировская область     58°48′51″N   49°36′52″E
темп.,
°C
ветер,
м/с
пор.,
м/с
влажн.,
%
обл.,
%
осадки,
мм/ч
давл.,
гПа
погр.,
м
6 марта, сб
сб600:00−19зсз229810 0.0 100720
03:00−20зсз229919 0.0 100920
06:00−19зсз229896 0.1 101052
09:00−16зсз249293 0.1 1010262
12:00−12з248596 0.0 1011646
15:00−11зюз358598 0.1 1010860
18:00−14з2396100 0.1 101043
21:00−17з2298100 0.1 101020
7 марта, вс
вс700:00−19з129960 0.0 101020
03:00−21юз1210034 0.0 101020
06:00−21ююз1210055 0.0 100920
09:00−17ююз249460 0.0 1008229
12:00−11ю358892 0.0 1006493
15:00−9ююв468696 0.1 1003785
18:00−12юв4994100 0.1 1001396
21:00−12юв41093100 0.1 1000449
8 марта, пн
пн800:00−12юв41094100 0.4 996498
03:00−11вюв51094100 1.3 994597
06:00−11в51193100 0.6 991577
09:00−11в51093100 1.3 991545
12:00−9в4791100 0.6 992603
15:00−8всв4691100 1.3 993558
18:00−10ссв4894100 0.4 995380
21:00−12ссв4893100 0.6 997374
9 марта, вт
вт900:00−13с4894100 0.1 999386
03:00−15с499398 0.1 1002394
06:00−17с389496 0.1 1004378
09:00−16с369095 0.2 1006449
12:00−14ссз3588100 0.1 1008514
15:00−14с4690100 0.2 1009568
18:00−17с3795100 0.1 1011392
21:00−19с389399 0.3 1013471
10 марта, ср
ср1000:00−22с379591 0.0 1015309
03:00−26с369586 0.1 1016185
06:00−28с389582 0.0 1017211
09:00−25с369152 0.0 1019287
12:00−19ссз24860 0.0 1019480
15:00−17сз358212 0.0 1018687
18:00−21зсз239565 0.0 101829
21:00−23з239632 0.0 101937